Vertical_Velocity
3 2 1 1 1 2 1 1 1 0 0 0 1 1 1 1 0 0 0 1 1 1 1 1 1 1 1 1 1 1 0 -0 -0 -0 0 1 1 1 2 2 0 -0 -0 0 0 -0 -1 -1 1 2 4 4 4 3 2 2 2 1 0 -0 -1 -2 -1 0 0 -0 -0 -0 -0
3 2 1 1 1 1 1 1 1 0 0 1 1 1 1 0 -0 0 1 0 1 1 1 1 1 1 1 2 1 0 -0 -1 -0 0 1 1 0 2 3 2 1 0 0 0 -0 -1 -2 -1 2 3 4 4 3 3 2 1 1 1 -0 -1 -2 -1 -0 0 -1 -2 -1 -1 -2
4 2 1 1 1 1 1 1 1 1 1 1 1 2 2 1 0 1 1 0 1 1 1 1 1 2 2 1 0 -0 -1 -1 -0 1 1 -0 0 2 3 2 2 1 1 -0 -1 -2 -2 0 3 4 4 4 4 3 2 1 1 -0 -1 -3 -2 -1 -1 -2 -3 -3 -2 -1 -3
3 2 1 0 0 0 0 1 1 1 1 1 1 2 2 1 1 1 1 0 1 0 -0 0 1 2 1 1 0 -0 -0 -0 0 1 0 -0 1 1 2 1 2 1 -0 -1 -1 -2 -1 2 5 5 4 4 4 3 2 0 -0 -1 -2 -3 -1 -1 -2 -4 -3 -3 -1 0 -2
2 1 -0 -0 0 -0 -0 0 0 1 1 1 1 1 2 2 1 0 -0 0 0 -0 -1 0 2 1 1 1 1 0 -0 -0 0 -0 -0 0 1 1 2 3 2 1 -1 -1 -1 -1 1 4 6 6 5 4 3 2 0 -0 -1 -2 -3 -3 -1 -1 -2 -4 -3 -1 -0 1 -0
1 -0 -0 -0 -0 -1 -1 -0 -0 0 0 1 1 2 2 1 0 -0 0 0 0 0 0 0 2 1 1 2 1 0 -0 -0 -1 -1 -0 1 1 2 3 4 1 -0 -1 -1 -2 -0 3 5 6 5 4 3 2 0 -1 -1 -2 -3 -3 -1 1 -0 -2 -2 -1 0 1 -0 -0
1 -0 -1 -1 -1 -1 -1 -0 0 0 0 -0 1 2 2 1 1 1 1 1 0 0 1 1 1 1 1 3 1 -0 -0 -1 -1 -0 0 0 1 2 3 2 0 -0 -1 -2 -1 1 4 6 5 4 2 1 0 -0 -1 -2 -2 -2 -1 1 1 -0 -1 0 2 2 1 -1 -1
0 -1 -1 -1 -0 -0 -0 0 0 0 0 0 0 1 2 1 1 1 1 1 -0 -0 0 1 1 1 1 1 -0 -1 -1 -0 0 0 -0 -0 1 2 2 1 0 -0 -1 -2 -0 2 4 4 3 2 0 0 -0 -1 -2 -2 -2 -0 1 2 1 0 1 2 2 1 -1 -2 0
-0 -1 -1 -1 -0 0 0 1 0 0 1 1 1 1 1 1 0 0 0 1 -0 -0 0 1 1 2 2 1 0 -0 -1 -0 0 -0 -0 1 2 2 2 1 0 -0 -1 -1 1 3 4 3 2 1 -0 -0 -1 -1 -2 -1 1 3 4 2 1 1 1 2 0 -1 -2 -1 3
-1 -2 -2 -1 -0 0 1 1 0 1 1 1 1 1 1 0 0 -0 -0 -0 -0 -0 0 1 2 2 2 1 0 -0 -0 0 0 1 1 2 2 2 1 -0 -0 -0 -0 1 2 3 3 2 1 -0 -0 -1 -1 -2 -1 1 4 7 7 2 1 1 0 -1 -2 -2 -0 3 4
-1 -1 -1 -1 -0 -0 0 1 1 1 1 1 1 0 -0 -0 -0 -1 -1 -1 -1 -0 0 2 3 2 0 -0 -0 -0 1 1 1 2 3 3 2 1 1 -0 -0 0 1 2 3 3 2 1 0 -0 -1 -1 -2 -1 1 3 7 9 8 2 0 -1 -2 -3 -1 1 4 6 2
-0 -1 -2 -1 -1 -0 0 0 0 0 -0 -0 -0 -1 -1 -1 -2 -2 -2 -2 -1 -1 0 2 2 1 -1 -1 -0 1 2 2 3 4 4 4 2 2 1 1 1 2 2 3 3 2 1 0 -0 -1 -2 -1 -1 1 3 3 7 9 7 1 -1 -2 -2 -1 2 5 5 2 -2
-1 -2 -2 -2 -1 -0 -0 -0 -1 -1 -1 -1 -1 -1 -2 -2 -3 -3 -3 -2 -2 -1 0 1 0 0 -0 0 -0 2 4 4 4 4 4 3 2 2 2 2 2 2 3 4 3 2 1 0 -0 -2 -2 -0 4 6 7 5 8 7 5 0 -1 -1 -0 2 5 4 1 -3 -4
-2 -3 -3 -2 -2 -1 -1 -1 -1 -1 -1 -1 -2 -2 -3 -3 -3 -3 -2 -2 -1 -0 1 1 1 1 1 0 0 2 4 5 4 4 4 3 2 2 2 2 2 2 2 2 2 1 1 -0 -1 -2 -1 4 8 12 14 11 8 5 2 0 0 0 1 3 2 -0 -3 -4 -3
-1 -2 -2 -2 -2 -1 -1 -1 -1 -2 -2 -2 -2 -2 -3 -4 -3 -2 -1 -1 0 1 1 1 2 2 2 -0 1 2 4 5 4 4 4 3 3 3 2 2 2 1 1 1 0 -0 -0 -1 -1 -1 2 8 11 14 16 13 7 3 1 1 1 -0 -1 -0 -1 -2 -3 -2 1
0 -0 -0 -1 -0 -0 -0 -0 -1 -1 -1 -1 -2 -2 -2 -2 -1 -1 -0 -0 0 0 0 2 2 1 0 0 2 2 3 4 4 4 3 4 2 2 2 2 1 1 0 -0 -0 -1 -1 -2 -1 2 6 10 10 11 12 10 5 2 1 2 0 -1 -3 -2 -2 -1 -0 2 4
1 1 1 1 1 1 0 0 0 0 -0 -1 -1 -1 -1 -1 -1 -1 -1 -1 -0 1 4 6 3 0 -0 2 2 2 3 4 4 3 3 3 2 2 2 1 1 0 -0 -0 -0 -1 -1 -1 2 4 7 8 6 7 8 7 3 1 1 0 -1 -1 -2 -1 -2 -1 -0 2 4
2 2 2 1 1 1 1 1 1 1 0 -0 -1 -1 -1 -1 -1 -1 -1 1 5 8 10 8 3 1 2 2 2 2 3 4 4 3 3 3 3 2 2 1 1 1 0 0 -0 -1 -1 2 4 4 3 3 3 5 6 4 1 0 -1 -2 -1 -1 -1 -2 -3 -2 -1 1 4
4 4 4 3 2 1 1 1 1 0 -0 -1 -1 -0 1 1 -1 -1 2 8 11 10 7 2 0 1 3 2 2 3 4 4 4 4 4 4 4 3 2 2 1 1 0 -0 -2 -2 0 4 5 2 0 0 3 4 3 1 -1 -2 -2 -3 -1 -1 -1 -3 -3 -2 -0 2 5
8 8 6 3 2 1 1 0 0 -0 -0 -1 -1 -0 0 1 -1 1 5 10 9 6 1 -2 -2 -0 1 2 3 4 4 4 4 4 4 3 3 3 2 1 1 -0 -1 -3 -3 -1 1 3 4 3 2 1 1 1 0 -2 -2 -3 -2 -1 -0 -1 -2 -3 -2 -0 2 4 6
4 3 2 0 1 1 0 0 0 -0 -0 -1 -1 -2 -2 -1 2 4 5 4 1 -0 -1 -2 -1 -0 2 3 4 4 5 5 5 5 4 3 3 2 1 1 -0 -2 -3 -4 -2 -0 1 0 2 4 4 -0 -1 -2 -2 -2 -2 -1 -1 1 -0 -1 -2 -2 -0 2 4 5 7
-2 -1 -1 1 1 0 -0 0 0 0 -0 -0 -1 0 2 6 10 11 9 6 2 -0 -0 1 2 3 4 4 5 5 5 5 5 4 4 3 2 1 0 -0 -1 -2 -3 -1 1 1 -0 -1 1 3 3 -1 -2 -2 -1 -0 0 0 1 1 -1 -2 -2 -1 2 4 5 6 7
-3 -2 -1 1 1 1 1 1 1 1 1 1 4 7 11 14 14 15 16 15 8 3 1 3 4 5 5 6 6 5 4 4 4 3 3 2 1 1 -0 -1 -1 -1 0 2 2 0 -1 -0 1 1 1 -1 -0 1 1 1 1 1 0 -0 -1 -1 -0 1 2 4 5 6 7
2 6 9 12 10 7 4 2 2 2 3 6 9 11 11 9 12 17 19 14 6 4 4 5 5 6 6 6 6 6 5 4 3 2 1 1 0 0 0 0 0 1 2 2 0 -0 1 2 2 2 1 1 3 4 4 2 1 0 -0 -0 -0 0 1 2 3 4 6 6 6
11 16 20 22 16 9 4 3 3 4 4 5 4 3 3 4 9 10 9 4 3 4 5 6 6 6 6 5 6 7 7 6 4 2 0 -0 -0 0 0 1 0 -0 -0 -0 0 2 3 4 4 3 2 4 6 6 4 1 0 -0 -0 -0 0 1 2 4 5 5 6 6 7
16 17 17 16 10 6 4 6 6 5 4 1 0 1 2 5 6 5 3 3 4 5 6 6 6 6 6 6 7 7 6 5 4 2 1 0 0 1 0 -0 -1 -2 -1 -0 3 5 6 6 5 4 4 5 5 3 1 -0 -1 -0 -0 0 1 2 4 6 6 6 6 7 7
20 16 12 10 6 4 5 7 10 12 12 9 7 6 4 4 3 2 2 2 4 4 5 6 5 5 5 6 6 5 4 2 3 3 2 1 1 0 -1 -3 -2 0 3 5 7 7 6 5 5 5 4 4 2 1 -0 -1 -1 -1 -0 0 2 4 6 8 8 7 7 7 6
14 13 12 10 6 5 6 11 16 18 17 10 5 3 2 -0 -0 0 2 3 5 5 6 6 6 5 4 2 2 1 1 1 1 2 2 1 1 -0 -1 -2 2 7 9 9 7 6 5 5 4 4 3 2 1 0 -0 -0 -0 -0 -0 1 2 4 6 7 7 7 6 5 2
-0 2 5 6 4 5 7 11 11 10 7 5 3 2 3 3 4 5 7 8 9 8 6 5 3 2 0 -1 -1 -1 -1 -0 0 1 1 1 1 1 3 6 8 9 9 6 2 0 1 5 4 3 2 2 1 1 1 1 1 1 1 1 3 3 3 3 4 4 3 2 -0
-4 -1 0 -0 -4 -5 -4 -0 2 2 2 2 5 7 9 10 9 9 8 8 7 5 3 2 1 -0 -1 -1 -2 -1 -1 -0 0 1 1 1 0 1 5 13 8 5 2 -1 -3 -3 -0 5 4 3 2 2 2 2 2 2 3 3 3 3 2 2 2 3 3 2 2 1 -1
-1 -0 -0 -2 -6 -6 -2 3 5 5 4 4 6 8 8 7 6 6 4 3 2 1 1 1 0 -0 -0 -0 -0 0 1 1 1 2 2 1 0 1 4 7 2 -3 -5 -5 -4 -0 3 5 4 3 2 2 3 3 4 4 5 5 5 3 2 2 3 3 2 1 0 -1 -2
0 1 -0 -4 -5 -0 6 11 11 9 7 6 6 5 4 3 2 2 2 2 2 1 1 1 0 0 0 1 1 1 2 1 1 0 -0 -0 0 1 -0 -3 -4 -4 -4 -1 2 4 6 5 4 4 5 6 6 7 7 7 6 5 4 2 2 2 2 1 -0 -1 -3 -4 -3
-0 -0 -1 -4 -2 2 7 10 10 8 7 5 4 3 2 1 1 1 2 2 2 2 2 3 2 1 0 1 1 1 0 -0 -1 -1 -1 0 -1 -4 -6 -5 -2 0 3 5 7 8 7 7 7 8 10 10 10 9 8 7 6 4 2 1 1 -0 -1 -3 -4 -5 -6 -5 -4
-1 -2 -2 -2 1 4 5 6 5 4 3 3 2 2 2 1 1 1 1 2 6 8 9 9 8 6 5 3 3 2 1 1 2 3 3 2 -1 -3 -2 1 4 6 8 9 9 9 9 10 11 11 11 10 8 7 6 6 4 2 0 -1 -2 -2 -2 -4 -4 -4 -4 -2 -2
-2 -2 -2 0 4 6 7 5 2 0 -1 -0 0 1 2 1 0 -0 -0 2 7 11 13 12 11 10 9 7 8 7 6 6 7 7 6 5 4 4 5 6 6 7 8 8 7 8 9 10 10 9 8 7 6 5 4 4 2 1 -1 -2 -3 -3 -3 -3 -1 -0 0 1 0
-0 -0 1 3 6 8 8 7 3 1 -1 -1 -0 1 1 1 -0 -1 -0 2 5 7 8 7 8 9 9 10 10 10 10 8 7 7 8 9 8 7 7 7 6 5 5 5 5 5 6 8 8 7 6 6 5 5 4 3 0 -1 -3 -3 -3 -2 -1 0 2 2 2 2 1
1 2 3 4 5 6 7 7 5 4 1 -1 -0 -0 0 -0 -1 -1 1 3 5 5 4 2 4 6 7 8 7 7 7 6 5 5 5 6 5 4 5 6 5 4 4 4 4 4 4 5 6 6 6 6 5 4 3 1 -1 -2 -2 -1 1 2 2 3 2 2 1 0 -0
-1 1 2 3 3 3 4 4 4 3 2 1 0 0 0 -1 -2 -0 3 7 7 5 3 2 2 2 2 1 -0 -1 -1 -0 0 -0 -2 -3 -1 1 3 4 3 3 3 4 3 3 4 4 4 4 5 4 3 2 0 -1 -1 0 2 3 3 3 2 2 1 1 -0 -1 -1
-3 -2 -1 0 2 3 4 3 0 -1 -1 -1 -1 -0 -0 -1 -2 0 5 11 9 6 3 2 -0 -2 -4 -4 -4 -4 -4 -3 -4 -6 -8 -9 -4 1 4 3 2 2 1 2 2 2 2 2 2 2 2 1 -0 -0 -0 1 2 3 4 4 3 3 2 1 1 0 -0 -0 -0
-3 -3 -2 -0 3 6 7 6 0 -2 -3 -2 -2 -2 -3 -3 -4 -1 3 7 7 5 4 2 -1 -4 -5 -4 -2 -1 -2 -3 -5 -7 -8 -7 -1 3 5 4 2 0 -1 -1 -1 -1 -1 -1 -0 0 0 0 1 2 4 5 5 5 4 4 4 3 2 1 1 1 1 0 0
-1 -1 -1 -0 2 5 7 7 2 -0 -1 -1 -1 -2 -3 -4 -5 -4 -2 0 2 2 2 2 -1 -2 -2 -0 -0 -1 -2 -4 -4 -4 -4 -2 1 3 4 4 2 -1 -3 -4 -2 -1 -0 1 1 2 3 4 5 7 7 7 6 5 5 4 3 2 2 2 2 1 1 1 0
Height
2913 2914 2915 2916 2917 2918 2919 2920 2921 2923 2924 2926 2928 2930 2932 2934 2935 2937 2939 2940 2941 2943 2945 2946 2948 2950 2952 2954 2956 2959 2962 2965 2969 2973 2977 2981 2985 2988 2991 2994 2996 2999 3002 3005 3009 3011 3014 3016 3019 3021 3023 3025 3027 3029 3031 3033 3035 3037 3040 3042 3044 3046 3048 3049 3050 3050 3051 3052 3053
2911 2912 2913 2914 2915 2916 2918 2919 2920 2921 2923 2924 2926 2928 2930 2932 2934 2935 2937 2939 2940 2941 2943 2945 2946 2948 2950 2953 2955 2958 2961 2964 2967 2971 2975 2979 2982 2986 2990 2992 2995 2998 3001 3005 3007 3010 3013 3015 3018 3020 3023 3025 3027 3029 3030 3032 3035 3037 3039 3041 3044 3045 3047 3047 3049 3050 3050 3051 3053
2909 2910 2912 2913 2914 2915 2916 2917 2919 2920 2921 2923 2924 2926 2928 2930 2932 2934 2936 2937 2939 2940 2941 2943 2945 2947 2949 2951 2954 2956 2960 2962 2965 2969 2973 2976 2980 2984 2988 2991 2994 2998 3000 3003 3006 3010 3012 3015 3018 3020 3022 3024 3026 3028 3030 3032 3034 3036 3038 3040 3043 3044 3045 3046 3048 3049 3050 3051 3052
2908 2909 2910 2911 2913 2914 2915 2916 2917 2919 2920 2921 2923 2925 2927 2929 2931 2933 2934 2936 2938 2939 2940 2941 2944 2946 2948 2950 2952 2955 2958 2961 2964 2967 2971 2975 2979 2982 2986 2990 2994 2997 3000 3002 3006 3009 3012 3015 3018 3019 3021 3024 3026 3028 3030 3031 3033 3035 3037 3040 3042 3043 3045 3046 3047 3048 3049 3050 3051
2906 2907 2909 2910 2911 2913 2914 2915 2916 2917 2919 2920 2921 2924 2926 2928 2930 2931 2933 2935 2937 2938 2939 2940 2943 2944 2946 2949 2951 2954 2957 2960 2963 2966 2969 2973 2977 2981 2985 2989 2993 2996 2999 3002 3005 3009 3012 3015 3017 3019 3021 3023 3025 3027 3029 3031 3033 3035 3037 3039 3041 3042 3044 3045 3046 3047 3048 3049 3050
2905 2906 2907 2909 2910 2911 2913 2914 2915 2916 2918 2919 2921 2923 2925 2927 2929 2930 2932 2934 2935 2937 2938 2940 2941 2943 2945 2948 2951 2953 2956 2958 2961 2965 2968 2972 2976 2980 2984 2988 2992 2995 2998 3001 3005 3009 3012 3014 3016 3019 3021 3023 3025 3026 3028 3030 3032 3034 3036 3038 3040 3042 3043 3044 3045 3046 3047 3048 3049
2904 2905 2906 2908 2909 2910 2912 2913 2914 2915 2917 2918 2920 2922 2924 2926 2928 2930 2932 2934 2935 2936 2938 2939 2941 2943 2945 2947 2950 2952 2955 2957 2960 2964 2967 2971 2975 2979 2984 2988 2991 2994 2998 3001 3005 3009 3011 3014 3016 3018 3020 3022 3024 3026 3028 3030 3032 3034 3036 3038 3039 3041 3042 3043 3044 3045 3046 3047 3047
2902 2904 2905 2907 2908 2910 2911 2912 2914 2915 2916 2918 2920 2922 2924 2925 2927 2930 2931 2933 2934 2935 2937 2939 2940 2942 2944 2946 2949 2951 2954 2957 2960 2963 2967 2970 2975 2979 2983 2987 2991 2994 2997 3001 3005 3008 3011 3014 3016 3018 3020 3022 3024 3025 3027 3030 3031 3033 3035 3037 3038 3040 3041 3042 3043 3044 3045 3045 3045
2902 2903 2905 2906 2907 2909 2910 2912 2913 2915 2916 2918 2920 2921 2923 2925 2927 2929 2931 2932 2934 2935 2937 2939 2940 2942 2944 2946 2949 2951 2954 2957 2960 2963 2966 2970 2975 2979 2983 2987 2990 2994 2997 3001 3005 3008 3011 3013 3015 3017 3019 3021 3023 3025 3027 3030 3031 3033 3034 3035 3037 3038 3040 3040 3041 3042 3042 3043 3044
2902 2903 2905 2906 2907 2909 2910 2911 2913 2914 2916 2918 2920 2921 2923 2925 2927 2929 2930 2932 2934 2935 2937 2939 2940 2943 2945 2947 2949 2951 2954 2957 2960 2963 2967 2971 2975 2979 2983 2987 2990 2994 2998 3002 3006 3008 3010 3013 3015 3017 3019 3021 3023 3025 3027 3029 3030 3031 3032 3034 3035 3037 3038 3039 3040 3040 3040 3041 3042
2903 2904 2905 2906 2907 2908 2910 2911 2912 2914 2916 2918 2920 2921 2923 2925 2927 2929 2931 2932 2934 2935 2937 2939 2941 2944 2946 2947 2949 2951 2954 2957 2960 2964 2967 2971 2975 2979 2983 2987 2990 2994 2999 3003 3005 3008 3010 3012 3014 3016 3019 3021 3023 3025 3027 3028 3028 3029 3031 3032 3034 3035 3036 3037 3037 3038 3039 3040 3040
2904 2904 2905 2906 2907 2909 2910 2911 2913 2915 2917 2918 2920 2921 2924 2926 2928 2930 2931 2933 2934 2936 2937 2939 2941 2944 2946 2947 2949 2952 2955 2957 2960 2964 2968 2972 2976 2980 2983 2987 2991 2995 3000 3003 3005 3007 3009 3012 3014 3016 3018 3020 3023 3025 3026 3026 3026 3028 3029 3031 3032 3034 3035 3035 3036 3037 3038 3038 3039
2904 2905 2906 2907 2908 2909 2911 2912 2914 2915 2917 2919 2921 2923 2925 2927 2929 2931 2932 2934 2935 2936 2938 2939 2942 2944 2945 2947 2950 2953 2955 2958 2961 2965 2969 2972 2976 2980 2984 2987 2992 2996 3000 3002 3005 3007 3009 3011 3014 3016 3018 3020 3022 3023 3024 3025 3025 3027 3028 3030 3031 3032 3033 3034 3035 3036 3036 3037 3038
2905 2906 2907 2908 2910 2911 2912 2913 2915 2917 2919 2920 2922 2924 2926 2928 2930 2931 2933 2934 2935 2937 2939 2940 2942 2944 2946 2949 2951 2954 2956 2960 2963 2966 2970 2973 2977 2981 2985 2989 2993 2996 2999 3002 3004 3006 3009 3011 3013 3015 3018 3019 3020 3021 3022 3024 3025 3026 3027 3029 3030 3031 3032 3033 3034 3035 3035 3036 3038
2906 2907 2909 2910 2911 2913 2914 2915 2917 2919 2920 2922 2924 2926 2928 2929 2931 2932 2934 2935 2937 2938 2940 2942 2944 2946 2948 2950 2954 2956 2958 2961 2964 2967 2971 2974 2978 2982 2986 2990 2994 2996 2999 3001 3004 3006 3009 3011 3013 3015 3017 3018 3019 3020 3021 3023 3024 3025 3026 3028 3030 3031 3032 3033 3033 3034 3035 3036 3037
2909 2910 2911 2912 2913 2915 2916 2918 2919 2921 2922 2924 2925 2927 2929 2930 2931 2933 2935 2936 2938 2940 2942 2944 2945 2948 2950 2953 2956 2958 2960 2963 2966 2969 2973 2976 2980 2984 2988 2991 2994 2996 2999 3001 3004 3006 3009 3011 3013 3015 3016 3017 3018 3019 3020 3022 3023 3025 3026 3027 3029 3030 3031 3032 3033 3034 3035 3036 3037
2911 2912 2913 2914 2915 2916 2918 2920 2921 2922 2924 2925 2927 2928 2930 2931 2933 2935 2937 2939 2940 2942 2944 2946 2948 2950 2952 2956 2958 2959 2961 2965 2968 2971 2975 2979 2982 2985 2989 2991 2994 2996 2999 3001 3004 3006 3009 3011 3013 3015 3016 3016 3018 3019 3020 3021 3022 3024 3025 3027 3028 3029 3030 3031 3032 3033 3034 3035 3036
2914 2915 2915 2916 2917 2918 2920 2921 2922 2923 2925 2926 2928 2929 2931 2933 2935 2937 2939 2941 2942 2944 2946 2948 2950 2952 2955 2957 2959 2960 2963 2967 2970 2973 2977 2980 2983 2986 2989 2991 2994 2997 3000 3002 3004 3007 3009 3011 3013 3014 3015 3016 3018 3019 3019 3020 3021 3023 3025 3026 3027 3028 3029 3030 3031 3032 3033 3035 3035
2917 2917 2918 2919 2919 2920 2921 2922 2923 2925 2926 2928 2929 2931 2933 2935 2937 2939 2941 2943 2944 2946 2947 2949 2951 2954 2956 2958 2960 2962 2965 2969 2972 2975 2978 2981 2984 2987 2990 2992 2995 2997 3000 3002 3005 3007 3009 3011 3013 3014 3015 3016 3017 3018 3019 3020 3021 3022 3024 3025 3026 3027 3028 3029 3030 3032 3033 3034 3035
2920 2920 2921 2921 2921 2922 2923 2924 2925 2926 2928 2929 2931 2933 2935 2937 2939 2941 2943 2945 2946 2947 2949 2950 2953 2955 2958 2960 2961 2964 2967 2970 2973 2976 2979 2982 2985 2988 2990 2993 2995 2998 3000 3003 3005 3007 3010 3011 3013 3014 3014 3015 3016 3017 3018 3019 3020 3022 3024 3025 3026 3027 3028 3029 3030 3031 3033 3034 3035
2921 2922 2922 2922 2923 2924 2925 2925 2927 2928 2930 2931 2933 2935 2936 2938 2941 2943 2945 2946 2948 2949 2951 2953 2955 2957 2959 2961 2964 2966 2969 2972 2975 2977 2980 2983 2986 2989 2991 2994 2996 2999 3001 3003 3005 3007 3009 3011 3012 3013 3014 3015 3016 3017 3018 3019 3020 3022 3024 3025 3026 3027 3028 3029 3030 3031 3032 3034 3035
2923 2923 2924 2924 2925 2926 2926 2927 2929 2930 2932 2933 2935 2936 2938 2940 2942 2944 2946 2949 2950 2952 2953 2955 2957 2959 2961 2963 2966 2968 2971 2973 2976 2979 2982 2985 2987 2990 2992 2995 2997 2999 3001 3003 3005 3007 3009 3010 3011 3012 3013 3015 3016 3017 3018 3020 3021 3022 3023 3025 3026 3027 3028 3029 3030 3031 3032 3033 3034
2925 2925 2926 2927 2927 2928 2929 2930 2931 2932 2934 2935 2936 2938 2940 2942 2943 2946 2950 2952 2953 2954 2955 2957 2959 2961 2964 2966 2968 2970 2973 2975 2978 2981 2983 2986 2989 2991 2993 2995 2997 2999 3001 3003 3005 3007 3009 3010 3011 3012 3013 3015 3016 3017 3019 3020 3021 3022 3023 3025 3026 3027 3028 3029 3030 3031 3032 3033 3034
2927 2928 2929 2930 2931 2932 2932 2933 2934 2935 2936 2937 2939 2940 2942 2943 2946 2950 2953 2955 2955 2956 2958 2960 2961 2964 2966 2968 2970 2973 2975 2978 2980 2982 2985 2987 2989 2991 2994 2996 2998 3000 3001 3004 3005 3007 3008 3010 3011 3012 3013 3015 3015 3017 3018 3019 3021 3022 3023 3024 3025 3027 3028 3029 3030 3031 3032 3033 3033
2931 2932 2933 2934 2935 2935 2935 2936 2937 2938 2939 2940 2942 2943 2945 2947 2950 2953 2954 2955 2957 2958 2960 2962 2964 2966 2968 2970 2973 2975 2978 2980 2982 2984 2985 2988 2990 2992 2994 2996 2998 3000 3002 3004 3006 3007 3008 3009 3010 3012 3013 3014 3015 3016 3017 3019 3020 3022 3023 3024 3025 3026 3027 3028 3030 3030 3031 3032 3033
2934 2935 2936 2937 2938 2938 2938 2939 2940 2941 2942 2944 2945 2947 2949 2951 2953 2955 2956 2957 2959 2961 2963 2964 2966 2968 2970 2973 2975 2978 2980 2981 2983 2985 2987 2989 2991 2993 2995 2997 2999 3001 3003 3004 3006 3007 3008 3009 3010 3012 3013 3014 3015 3016 3017 3019 3020 3021 3023 3024 3025 3026 3027 3028 3029 3030 3030 3031 3032
2937 2938 2939 2940 2940 2941 2941 2942 2943 2945 2947 2949 2950 2951 2953 2954 2955 2957 2958 2960 2961 2963 2965 2967 2969 2971 2973 2976 2978 2980 2981 2983 2985 2987 2989 2990 2992 2995 2997 2999 3000 3001 3003 3005 3006 3007 3008 3010 3011 3012 3013 3014 3015 3016 3017 3018 3020 3021 3022 3024 3025 3026 3027 3028 3028 3029 3030 3031 3032
2940 2941 2943 2944 2944 2944 2945 2946 2949 2951 2953 2954 2954 2955 2956 2957 2958 2960 2961 2963 2965 2967 2968 2970 2972 2974 2975 2977 2979 2981 2982 2984 2986 2988 2990 2992 2994 2996 2998 2999 3001 3002 3004 3005 3006 3007 3009 3010 3011 3012 3012 3013 3015 3016 3017 3018 3019 3020 3022 3023 3024 3025 3026 3027 3028 3029 3030 3031 3032
2943 2944 2945 2946 2947 2948 2950 2951 2953 2954 2955 2956 2957 2958 2959 2960 2962 2963 2965 2967 2969 2970 2972 2973 2975 2976 2977 2979 2980 2982 2984 2986 2988 2990 2992 2994 2995 2997 2999 3000 3002 3003 3004 3005 3006 3007 3009 3010 3011 3011 3012 3013 3015 3016 3017 3018 3019 3020 3021 3023 3023 3024 3025 3026 3027 3028 3029 3030 3032
2946 2947 2948 2949 2950 2950 2952 2953 2955 2956 2957 2958 2960 2961 2963 2964 2965 2966 2968 2970 2971 2972 2973 2975 2976 2978 2979 2981 2983 2984 2986 2988 2990 2992 2993 2995 2997 2999 3000 3001 3002 3003 3005 3005 3006 3008 3009 3010 3010 3011 3012 3014 3015 3015 3017 3018 3019 3020 3021 3021 3022 3023 3024 3025 3027 3028 3029 3030 3032
2951 2952 2952 2953 2954 2954 2955 2956 2958 2959 2960 2961 2963 2964 2965 2966 2967 2969 2970 2971 2972 2974 2975 2977 2978 2980 2981 2983 2985 2986 2988 2990 2992 2994 2995 2997 2998 3000 3001 3002 3003 3004 3005 3005 3007 3008 3009 3010 3010 3011 3012 3014 3015 3015 3017 3018 3019 3020 3020 3020 3021 3023 3024 3025 3026 3028 3029 3031 3032
2955 2956 2957 2957 2957 2958 2959 2960 2961 2963 2964 2965 2966 2967 2968 2969 2970 2971 2972 2973 2975 2976 2978 2979 2981 2982 2984 2985 2987 2989 2990 2992 2994 2995 2997 2999 3000 3001 3001 3002 3003 3004 3005 3005 3007 3008 3009 3010 3010 3011 3012 3014 3015 3015 3016 3017 3018 3019 3020 3020 3022 3023 3024 3025 3027 3028 3030 3032 3033
2959 2960 2960 2960 2961 2962 2963 2964 2965 2966 2967 2968 2969 2970 2970 2971 2972 2973 2975 2976 2978 2979 2981 2982 2983 2985 2986 2988 2990 2991 2993 2995 2996 2998 2999 3000 3001 3002 3002 3002 3003 3004 3005 3006 3007 3008 3009 3009 3010 3011 3013 3014 3014 3015 3016 3017 3017 3019 3020 3021 3022 3024 3025 3026 3028 3030 3032 3033 3034
2963 2963 2963 2964 2965 2965 2966 2967 2968 2969 2970 2971 2971 2972 2973 2974 2975 2976 2978 2979 2981 2982 2983 2985 2986 2987 2989 2990 2992 2993 2995 2996 2998 2999 3000 3001 3002 3002 3002 3002 3003 3004 3005 3006 3007 3008 3009 3010 3011 3012 3013 3013 3014 3015 3015 3016 3018 3019 3020 3022 3024 3025 3027 3028 3030 3031 3033 3034 3035
2965 2966 2966 2967 2968 2969 2970 2971 2971 2972 2972 2973 2974 2975 2976 2977 2978 2979 2980 2982 2983 2985 2986 2987 2989 2990 2992 2993 2994 2995 2996 2998 2999 3000 3001 3002 3002 3001 3002 3002 3003 3004 3005 3006 3007 3008 3009 3010 3011 3012 3013 3014 3015 3015 3016 3018 3020 3021 3023 3025 3026 3027 3028 3030 3031 3033 3034 3035 3036
2969 2969 2970 2971 2972 2972 2973 2974 2975 2975 2975 2976 2977 2978 2979 2980 2981 2982 2983 2984 2986 2987 2989 2990 2991 2993 2994 2995 2996 2997 2998 2999 3000 3001 3001 3002 3002 3002 3002 3003 3003 3004 3005 3006 3007 3008 3009 3010 3012 3013 3014 3015 3016 3018 3019 3021 3022 3024 3025 3025 3027 3028 3030 3031 3033 3034 3035 3036 3037
2972 2973 2974 2974 2975 2976 2976 2977 2978 2979 2979 2979 2980 2981 2982 2983 2984 2985 2986 2987 2988 2990 2991 2992 2993 2995 2995 2996 2997 2999 3000 3001 3002 3002 3002 3002 3002 3002 3003 3003 3003 3004 3005 3006 3008 3010 3011 3013 3014 3016 3017 3018 3020 3020 3021 3022 3023 3024 3025 3027 3028 3030 3032 3033 3034 3035 3036 3037 3038
2976 2976 2977 2978 2978 2979 2980 2980 2981 2982 2982 2982 2983 2984 2985 2985 2986 2987 2989 2990 2991 2992 2993 2994 2995 2996 2997 2998 3000 3000 3001 3002 3003 3003 3003 3003 3004 3004 3004 3004 3004 3005 3006 3008 3010 3012 3014 3015 3017 3018 3019 3020 3021 3021 3022 3023 3024 3025 3027 3029 3030 3032 3033 3034 3035 3036 3037 3038 3039
2980 2980 2980 2980 2981 2982 2983 2984 2984 2984 2985 2985 2986 2987 2988 2989 2989 2990 2991 2992 2994 2994 2995 2996 2997 2998 2999 3000 3001 3002 3003 3004 3005 3005 3005 3005 3005 3006 3006 3006 3006 3007 3009 3011 3013 3015 3016 3018 3019 3020 3020 3021 3022 3023 3024 3025 3026 3028 3029 3030 3032 3033 3034 3035 3036 3037 3038 3039 3040
2983 2983 2983 2983 2984 2985 2985 2986 2986 2987 2987 2988 2989 2990 2991 2991 2992 2993 2994 2995 2996 2997 2997 2998 2999 3000 3001 3002 3003 3004 3004 3005 3006 3007 3007 3007 3007 3008 3008 3008 3009 3010 3012 3013 3015 3017 3018 3019 3020 3021 3022 3023 3024 3025 3026 3028 3029 3030 3031 3032 3033 3034 3035 3036 3037 3038 3039 3040 3041
2985 2986 2986 2986 2986 2987 2988 2989 2989 2990 2990 2990 2991 2992 2993 2994 2995 2996 2997 2997 2998 2999 3000 3000 3001 3001 3002 3003 3004 3004 3005 3006 3007 3008 3008 3008 3009 3009 3010 3011 3012 3013 3014 3015 3016 3018 3020 3021 3022 3023 3025 3025 3027 3028 3029 3030 3030 3031 3032 3033 3035 3035 3037 3038 3038 3039 3040 3041 3042